DECAYED

STARLINK-1293, 45411 (Decayed)

Orbit data source: Space-Track

STARLINK-1293, 45411 was a payload satellite owned by SpaceX/Seattle (US) in LEO that was launched on Wed, 18 Mar 2020 UTC via an FALCON 9 launch vehicle from the Air Force Eastern Test Range (AFETR). Payload-class satellites include a variety of spacecraft equipped with specific instruments for various scientific and technological missions. These include communications satellites like Starlink; space stations such as the ISS; scientific satellites like the Hubble; Earth observation satellites from companies like Planet Labs, Umbra, and HawkEye 360; GPS; miniature CubeSats for education and research; and military/defense satellites.

Not visible in the next 10 days
Identifier
45411, 2020-019BD
Orbit
Decayed
Country
Flag of USUS
Related business
Manufacturer
SpaceX/Seattle
Mission
Decayed Commercial Communications
Bus & Motor
STARLINK, Unknown motor
Mass
260 kg wet, ~248 kg dry
Launch date (UTC)
2020-03-18 (6 years ago)
Launch vehicle
FALCON 9
Launch site
Air Force Eastern Test Range (AFETR)
Object type
Payload
Rocket body
Debris
Shape & HBR
Box + 1 Pan, 10.1 m
Radar Cross Section
13.562 m², Large (>1 m²)

Expand to show TLE details & history
Last TLE update: 6 months ago

TLE from 6 months ago
0 STARLINK-1293
1 45411U 20019BD  25094.72331580  .34538342  12423-4  32455-2 0  9995
2 45411  53.0155 187.6081 0007920 339.1092 147.7547 16.37754237279202
Epoch: 2025-04-04T17:21Z
TLE epoch observation values (Epoch: 2025-04-04T17:21:34.485Z)
Latitude
39.82815°
Longitude
-124.70894°
Altitude
179.689 km
Speed
7.801 km/s
True Right ascension
21h 55m 50s
True Declination
39° 38' 39"
Sunlit
Object was in daylight at epoch
Visualization orbit readout
Latitude
Unknown
Longitude
Unknown
Altitude
Unknown
Speed
Unknown
Apparent Right ascension
Unknown
Apparent Declination
Unknown
Sunlit
N/A
Visualization observer readout
Local Sidereal Time
18:32:17
Azimuth
Unknown
Elevation
Unknown
Doppler factor
Unknown
Orbital elements
Apogee altitude
177.264 km
Perigee altitude
166.888 km
Semi-major axis
6,550.213 km
Eccentricity
0.00079
Inclination
53.0155°
RAAN
187.6081°
Arg. of periapsis
339.1092°
True anomaly
147.80308°
Mean anomaly
147.7547°
Eccentric anomaly
147.7789°
Mean motion
4.09412 °/min
Orbital period
87.93 mins
BSTAR
0.0032455
Loading maneuver chart data...
Computing Atmospheric mass density...
Loading historical data...
Loading historical data...
Loading historical data...
Loading historical data...
Loading historical data...
Loading historical data...
Loading historical data...

Documentation

Showing up to 5 results
|